Location: Austin
(30.3000°N, 97.7500°W)
Time: 23:08:01
(UTC-05:00)

Cosmos 2333 Rocket - Pass Details

Date: 08 April 2026
Orbit: 842 x 860 km, 70.8° (Epoch: 20 April)

Event Time Altitude Azimuth Distance (km) Brightness Sun altitude
Rises 20:16:23 0° 194° (SSW) 3,399 5.4 -5.5°
Reaches altitude 10° 20:18:49 10° 193° (SSW) 2,464 4.7 -6.0°
Maximum altitude 20:24:28 77° 108° (ESE) 870 2.2 -7.2°
Drops below altitude 10° 20:30:07 10° 23° (NNE) 2,466 4.5 -8.4°
Sets 20:32:34 0° 22° (NNE) 3,402 5.3 -8.9°
